Location: Groß Bülten
(52.2633°N, 10.1901°E)
Time: 21:49:39
(UTC+00:00)

Daily predictions for brighter satellites

Satellite Brightness Start Highest point End
(mag) Time Altitude Azimuth Time Altitude Azimuth Time Altitude Azimuth
Cosmos 2100 Rocket 4.1 16:45:35 10° N 16:51:55 87° E 16:58:06 10° S
BlueWalker 3 4.4 16:52:39 10° W 16:55:28 22° SW 16:58:16 10° SSE
SJ-6F 4.3 16:52:24 10° SSE 16:56:18 61° ENE 17:00:12 10° N
Cosmos 2082 Rocket 3.9 16:51:43 10° W 16:56:31 28° NW 17:01:22 10° NNE
Cosmos 1812 4.4 16:54:40 10° NW 16:56:44 24° W 16:58:47 10° SSW
CARTOSAT-1 4.4 16:56:27 10° ESE 16:59:59 27° ENE 17:03:32 10° N
Cosmos 1864 Rocket 4.4 16:55:37 10° N 17:01:45 74° ENE 17:07:53 10° SSE
Cosmos 1356 Rocket 3.7 16:58:19 10° N 17:02:01 39° ENE 17:05:44 10° SE
USA 267 3.3 16:55:32 10° ENE 17:02:08 82° SSE 17:08:42 10° WSW
Cosmos 2297 Rocket 3.7 17:03:02 10° SE 17:06:22 16° E 17:09:43 10° ENE
USA 290 3.2 17:04:02 10° SSE 17:06:50 28° ESE 17:09:37 10° NE
Cosmos 1441 Rocket 2.9 17:03:35 10° SSW 17:06:57 83° WNW 17:10:18 10° NNE
In-Cosmos 22 Rocket 4.2 17:01:59 10° S 17:07:27 79° E 17:13:08 10° NNE
Cosmos 841 Rocket 4.1 17:03:13 10° SW 17:08:20 59° WNW 17:13:27 10° NNE
SAR-Lupe-5 4.3 17:06:24 10° NNE 17:08:57 50° ESE 17:11:22 10° S
Cosmos 1814 Rocket 4.4 17:04:56 10° S 17:09:55 44° ESE 17:14:52 10° NE
SAR-Lupe-4 3.5 17:06:49 10° SSE 17:10:21 66° ENE 17:13:55 10° N
Cosmos 1125 Rocket 3.8 17:07:09 10° NNW 17:12:07 43° NE 17:17:03 10° SE
Cosmos 1455 Rocket 4.2 17:09:38 10° NNE 17:12:57 21° ENE 17:16:14 10° ESE
Cosmos 2221 Rocket 4.5 17:16:32 10° SSE 17:20:20 28° E 17:24:12 10° NNE
YAOGAN 1 2.5 17:17:18 10° SSE 17:21:30 64° ENE 17:25:44 10° N
Okean 2 Rocket 3.2 17:17:33 10° N 17:21:52 50° ENE 17:26:07 10° SSE
Cosmos 2123 Rocket 4.0 17:16:16 10° S 17:22:35 81° E 17:28:55 10° NNE
Cosmos 1900 4.4 17:18:40 10° SSW 17:23:46 78° SE 17:28:49 10° NE
NOAA 6 4.2 17:19:36 10° SE 17:24:32 50° ENE 17:29:32 10° N
Okean 1 Rocket 3.3 17:21:04 10° N 17:25:21 47° ENE 17:29:35 10° SSE
Spot 4 Rocket 4.0 17:21:44 10° SSE 17:26:46 62° ENE 17:31:49 10° N
COSMOS 2428 2.7 17:21:50 10° NNW 17:27:37 87° ENE 17:33:21 10° SSE
Cosmos 1980 3.9 17:25:47 10° NNW 17:31:20 51° NE 17:36:50 10° SE
Sich 1 Rocket 3.8 17:26:58 10° N 17:31:25 51° ENE 17:35:51 10° SSE
SL-19 R/B 4.5 17:26:16 10° SE 17:32:20 61° ENE 17:38:09 10° NNW
Terra 3.8 17:33:16 10° NE 17:33:16 10° NE 17:34:03 10° NE
ARIANE 5 R/B 3.7 17:28:33 10° S 17:33:30 48° W 17:38:24 10° NNW
Aureole 3 Rocket 3.2 17:32:32 10° N 17:36:55 42° ENE 17:40:16 10° SE
Cosmos 2237 Rocket 2.4 17:31:23 10° NNW 17:36:57 52° NE 17:42:30 10° SE
Cosmos 158 Rocket 3.8 17:33:03 10° SSW 17:37:51 66° ESE 17:42:41 10° NNE
ATLAS 5 CENTAUR R/B 3.2 17:34:35 10° WNW 17:38:33 39° SW 17:43:22 10° SSE
Cosmos 192 4.4 17:33:43 10° NNW 17:38:37 85° WSW 17:43:29 10° SSE
SeaSat 1 3.9 17:35:46 10° S 17:40:22 41° WSW 17:45:01 10° NW
Cosmos 1378 Rocket 3.5 17:36:43 10° S 17:41:01 90° SW 17:45:21 10° N
Resurs 01 Rocket 1.8 17:37:36 10° SE 17:41:50 50° ENE 17:46:07 10° N
SKYMED 2 3.5 17:37:49 10° NNE 17:42:12 84° ESE 17:46:33 10° SSW
ARIANE 6 FM1 Upper Stage 4.0 17:39:05 10° NW 17:42:20 23° NNE 17:44:13 17° NE
GP-B 3.6 17:40:37 10° S 17:44:55 62° W 17:49:17 10° N
Cosmos 2219 Rocket 4.4 17:41:34 10° NW 17:46:19 29° WSW 17:51:01 10° SSW
COSMO-SKYMED 1 2.5 17:42:26 10° NNE 17:46:30 57° E 17:50:33 10° S
Cosmos 2228 4.0 17:44:33 10° N 17:48:02 25° ENE 17:49:16 22° E
Cosmos 2292 Rocket 3.9 17:47:45 10° SSW 17:50:30 41° WNW 17:53:27 10° N
PSLV R/B 3.3 17:47:33 10° SSE 17:51:40 82° ENE 17:55:49 10° NNW
Cosmos 2322 4.3 17:46:10 10° NW 17:51:47 60° WSW 17:57:23 10° SSE
NOSS 3-3 (A) 3.9 17:47:42 10° SSW 17:52:45 52° SE 17:57:36 16° NE
USA 306 2.9 17:51:34 10° W 17:54:10 31° SW 17:55:03 22° S
Cosmos 1447 Rocket 4.5 17:48:35 10° S 17:54:33 58° E 18:00:34 10° NNE
Resurs 1-3 4.2 17:51:13 10° S 17:55:28 60° W 17:59:44 10° NNW
Cosmos 1782 4.4 17:53:50 10° NNE 17:55:10 16° NE 17:55:10 16° NE
Cosmos 2285 Rocket 4.0 17:52:15 10° NNW 17:58:44 82° ENE 18:05:09 10° SSE
Cosmos 1025 Rocket 2.9 17:55:03 10° S 17:59:20 79° E 18:03:41 10° NNE
SJ-7 4.4 17:55:48 10° S 17:59:28 71° WSW 18:03:10 10° NNW
SL-16 R/B 3.1 17:55:17 10° NNW 18:00:17 31° NE 18:02:26 24° E
Cosmos 2227 Rocket 3.6 18:01:09 10° SE 18:03:35 18° ESE 18:03:35 18° ESE
SJ-6B 2.4 18:05:13 10° SSE 18:08:37 61° ENE 18:12:02 10° N
NOSS 3-4 (A) 3.7 18:02:47 10° NW 18:09:16 73° NE 18:15:10 18° ESE
NOSS 3-4 (C) 3.7 18:03:03 10° NW 18:09:33 73° NE 18:15:23 18° ESE
SPOT 5 3.4 18:08:20 25° ESE 18:10:31 38° ENE 18:15:12 10° N
Cosmos 2034 Rocket 4.4 18:09:27 10° N 18:15:10 38° ENE 18:18:04 25° ESE
Cosmos 1674 Rocket 4.1 18:11:16 10° SSW 18:15:36 60° WNW 18:20:00 10° N
Cosmos 1072 Rocket 4.5 18:10:56 10° N 18:17:09 58° ENE 18:23:14 10° SSE
Cosmos 1513 Rocket 4.4 18:11:18 10° N 18:17:34 74° ENE 18:23:54 10° SSE
Okean O Rocket 3.9 18:24:53 11° NNE 18:24:53 11° NNE 18:25:11 10° NNE
Cosmos 1867 4.0 18:18:26 10° WSW 18:23:49 62° NW 18:27:56 18° NE
ATLAS 2AS CENTAUR R/B 3.8 18:20:16 10° W 18:26:33 36° NNW 18:31:15 17° NE
CZ-4 R/B 2.6 18:28:09 25° NNE 18:28:09 25° NNE 18:30:04 10° N
CZ-4B R/B 3.8 18:26:45 33° ENE 18:26:59 33° ENE 18:31:41 10° N
Lacrosse 5 rocket 1.2 18:24:13 10° WSW 18:27:41 59° NNW 18:28:21 49° NNE
CZ-4B DEB 4.4 18:29:55 35° ESE 18:31:47 48° ENE 18:37:01 10° N
Meteor 1-31 Rocket 3.3 18:32:59 37° NNE 18:32:59 37° NNE 18:35:19 10° N
ADEOS 4.1 18:32:00 36° ENE 18:32:02 36° ENE 18:36:45 10° N
CZ-4C R/B 1.8 18:28:50 10° SW 18:33:15 83° NW 18:36:09 28° NE
IRAS Rocket 4.5 18:29:43 10° SSE 18:35:19 73° WSW 18:40:58 10° NNW
CRYOSAT 2 4.3 18:31:52 10° N 18:36:47 84° W 18:41:40 10° S
Feng Yun 1-1 Rocket 4.5 18:36:42 37° ESE 18:38:33 51° ENE 18:44:14 10° N
USA 290 4.5 18:38:23 10° WSW 18:41:04 24° NW 18:43:01 14° N
USA 267 3.5 18:41:48 31° ENE 18:45:04 63° N 18:51:30 10° W
Cosmos 1464 Rocket 3.9 18:38:55 10° N 18:45:20 82° E 18:51:41 10° SSE
CSL-04 Debris 4.0 18:44:38 30° SSE 18:47:22 73° ENE 18:52:48 10° NNW
ERS-1 Rocket 3.6 18:48:49 37° NE 18:48:49 37° NE 18:52:32 10° N
Cosmos 2297 Rocket 2.1 18:43:51 10° SSW 18:49:31 81° ESE 18:52:37 28° NE
Cosmos 1607 4.2 18:44:07 10° WSW 18:50:12 65° NW 18:54:10 23° NE
CSL-04 Rocket 3.5 18:47:26 28° SSE 18:50:18 81° ENE 18:55:37 10° NNW
Cosmos 1570 Rocket 3.8 18:45:13 10° SSW 18:50:29 76° ESE 18:52:48 34° NNE
Cosmos 1455 Rocket 3.8 18:46:45 10° NNW 18:50:56 51° W 18:55:06 10° S
Cosmos 1943 4.2 18:46:48 10° NNW 18:51:36 30° NE 18:51:36 30° NE
Cosmos 2344 4.0 18:45:00 10° S 18:51:12 34° SE 18:51:12 34° SE
DNEPR-1 R/B 3.8 18:48:20 10° NW 18:53:05 87° NE 18:54:13 57° SE
PAYLOAD B 4.1 19:05:28 63° SE 19:06:16 74° ENE 19:11:53 10° NNW
Cosmos 2208 Rocket 3.8 19:02:27 10° SSW 19:07:29 76° SE 19:07:29 76° SE
Terra 3.1 19:11:53 29° N 19:11:53 29° N 19:14:22 10° N
NOSS 3-3 (C) 4.0 19:09:04 10° WSW 19:14:29 68° NW 19:16:44 40° NNE
Resurs 01 Rocket 4.0 19:15:01 10° SW 19:18:29 23° W 19:21:59 10° NW
Cosmos 2237 Rocket 3.6 19:15:44 10° NW 19:20:50 35° WSW 19:25:53 10° S
ARIANE 6 FM1 Upper Stage 4.2 19:18:03 10° NW 19:20:14 30° NW 19:20:14 30° NW
Gblst 52 Del rocket 4.4 19:15:54 10° W 19:23:18 86° S 19:24:03 73° ESE
Cosmos 773 Rocket 4.0 19:19:46 10° SSW 19:25:02 77° WNW 19:25:06 77° NW
Cosmos 2228 4.2 19:21:14 10° NNW 19:25:09 40° W 19:25:36 38° WSW
SL-16 R/B 2.5 19:39:14 10° NW 19:44:19 65° WNW 19:44:19 65° WNW
Cosmos 2227 Rocket 3.5 19:42:48 10° SSW 19:45:30 30° SW 19:45:30 30° SW
SPOT 5 4.3 19:47:22 32° WSW 19:48:29 36° W 19:53:08 10° NNW
Okean O Rocket 4.3 20:02:07 13° NNW 20:02:07 13° NNW 20:02:37 10° NNW
CZ-4 R/B 4.2 20:03:09 13° NW 20:03:09 13° NW 20:03:48 10° NW
Lacrosse 5 rocket 4.4 20:01:35 10° WNW 20:01:47 11° WNW 20:01:47 11° WNW
CZ-4B R/B 4.2 20:08:36 41° WNW 20:08:36 41° WNW 20:12:35 10° NNW
Cosmos 1634 Rocket 4.5 20:04:55 10° NNW 20:10:07 57° NW 20:10:07 57° NW
BREEZE-M DEB (TANK) 4.4 19:58:42 10° W 20:10:45 49° SW 20:10:45 49° SW
ATLAS 2AS CENTAUR R/B 3.8 20:13:03 10° NW 20:18:40 33° N 20:18:40 33° N
CZ-4C R/B 3.7 20:17:46 10° W 20:21:07 30° NW 20:21:07 30° NW
USA 267 3.8 20:29:08 52° NW 20:29:08 52° NW 20:34:12 10° WNW
Cosmos 2297 Rocket 4.0 20:29:24 10° W 20:34:12 27° NW 20:34:29 27° NW
